BREEZE-KM DEB, 41721

Orbit data source: Space-Track

BREEZE-KM DEB, 41721 is space debris in LEO originally from a launch on Tue, 31 Mar 2015 UTC launched from the Plesetsk Missile And Space Complex (PKMTR). Debris objects in space refer to the collection of defunct objects orbiting the Earth. Examples of debris include non-operational satellites, rocket bodies, and fragments generated from explosions, collisions, or faulty payload assembly.

Loading next visibility...
Identifier
41721, 2015-020J
Orbit
LEO
Country
Flag of CISCIS
Related business
Manufacturer
Khrunichev
Mission
Spacecraft
Bus & Motor
Unknown
Mass
Unknown
Launch date (UTC)
2015-03-31 (11 years ago)
Launch vehicle
Unknown
Launch site
Plesetsk Missile And Space Complex (PKMTR)
Object type
Payload
Rocket body
Debris
Shape & HBR
Unknown shape, 0.1 m
Radar Cross Section
Small (<0.1 m²)

Expand to show TLE details & history
Last TLE update: 17 hours ago

TLE from 17 hours ago
0 BREEZE-KM DEB
1 41721U 15020J   26036.52119045  .00000080  00000-0  28154-3 0  9998
2 41721  82.4956 322.3985 0245725  82.2602 280.6320 12.74739882495413
Epoch: 2026-02-05T12:30Z
TLE epoch observation values (Epoch: 2026-02-05T12:30:30.854Z)
Latitude
-0.00008°
Longitude
-0.9023°
Altitude
1,334.884 km
Speed
7.204 km/s
True Right ascension
21h 29m 35s
True Declination
0° 00' 00"
Sunlit
Object was in daylight at epoch
Visualization orbit readout
Latitude
Unknown
Longitude
Unknown
Altitude
Unknown
Speed
Unknown
Apparent Right ascension
Unknown
Apparent Declination
Unknown
Sunlit
N/A
Visualization observer readout
Local Sidereal Time
07:22:35
Azimuth
Unknown
Elevation
Unknown
Doppler factor
Unknown
Orbital elements
Apogee altitude
1,550.141 km
Perigee altitude
1,169.85 km
Semi-major axis
7,738.133 km
Eccentricity
0.02457
Inclination
82.4956°
RAAN
322.3985°
Arg. of periapsis
82.2602°
True anomaly
277.84986°
Mean anomaly
280.632°
Eccentric anomaly
279.24238°
Mean motion
3.18852 °/min
Orbital period
112.91 mins
BSTAR
0.00028154
Loading maneuver chart data...
Computing Atmospheric mass density...
Loading historical data...
Loading historical data...
Loading historical data...
Loading historical data...
Loading historical data...
Loading historical data...
Loading historical data...

Documentation

Showing up to 5 results
|